Weather History for Maastricht, Netherlands

Change the Weather History Date:

Wednesday, May 8, 2013

  Actual Average Record
Temperature  
Mean Temperature 60 °F -  
Max Temperature 69 °F 65 °F 82 °F (2011)
Min Temperature 50 °F 47 °F 35 °F (1997)
Degree Days  
Heating Degree Days 6    
Growing Degree Days 10 (Base 50)    
Moisture  
Dew Point 54 °F    
Average Humidity 81    
Maximum Humidity 100    
Minimum Humidity 45    
Precipitation  
Precipitation 0.01 in 0.09 in - ()
Sea Level Pressure  
Sea Level Pressure 29.85 in    
Wind  
Wind Speed 9 mph ()    
Max Wind Speed 21 mph    
Max Gust Speed -    
Visibility 5.1 miles    
Events Rain , Thunderstorm    
Averages and records for this station are not official NWS values.
T = Trace of Precipitation, MM = Missing Value Source: Averaged Metar Reports

Daily Weather History Graph

Daily Weather History Graph

Search for Another Location

Airport:

Trip Planner

Search our weather history database for the weather conditions in past years. The results will help you decide how hot, cold, wet, or windy it might be!

Date:

Astronomy

May. 08, 2013 Rise Set
Actual Time 5:58 AM CEST 9:09 PM CEST
Civil Twilight 5:19 AM CEST 9:48 PM CEST
Nautical Twilight 4:28 AM CEST 10:40 PM CEST
Astronomical Twilight 3:21 AM CEST 11:48 PM CEST
Moon 5:07 AM CEST (5/8) 7:45 PM CEST (5/8)
Length of Visible Light 16h 29m
Length of Day
15h 11m
Waning Crescent, 2% of the Moon is Illuminated
May 8
Waning Crescent
May 10
New
May 18
First Quarter
May 25
Full
May 31
Last Quarter

Hourly Weather History & Observations

Time (CEST) Temp. Dew Point Humidity Pressure Visibility Wind Dir Wind Speed Gust Speed Precip Events Conditions
12:25 AM 55.4 °F 55.4 °F 100% 29.92 in 1.3 mi SSW 6.9 mph - N/A   Mostly Cloudy
12:55 AM 51.8 °F 51.8 °F 100% 29.89 in 1.3 mi SSW 6.9 mph - N/A   Partly Cloudy
1:25 AM 53.6 °F 53.6 °F 100% 29.89 in 1.5 mi South 5.8 mph - N/A   Mist
1:55 AM 53.6 °F 51.8 °F 94% 29.89 in 1.7 mi South 5.8 mph - N/A   Mist
2:00 AM 52 °F 52 °F 99% 29.91 in 2 mi South 4.5 mph - -   Mist
2:25 AM 51.8 °F 51.8 °F 100% 29.89 in 1.6 mi SSW 5.8 mph - N/A   Mist
2:55 AM 51.8 °F 51.8 °F 100% 29.89 in - South 6.9 mph - N/A   Mist
3:25 AM 53.6 °F 51.8 °F 94% 29.89 in 3.1 mi South 8.1 mph - N/A   Overcast
3:55 AM 53.6 °F 51.8 °F 94% 29.89 in 4.3 mi South 6.9 mph - N/A   Overcast
4:25 AM 51.8 °F 50.0 °F 94% 29.86 in 3.7 mi South 5.8 mph - N/A   Mostly Cloudy
4:55 AM 51.8 °F 50.0 °F 94% 29.86 in 4.3 mi South 6.9 mph - N/A   Partly Cloudy
5:00 AM 51 °F 50 °F 95% 29.88 in 4 mi South 6.7 mph - -   Mist
5:25 AM 51.8 °F 50.0 °F 94% 29.86 in 4.3 mi South 8.1 mph - N/A   Unknown
5:55 AM 51.8 °F 50.0 °F 94% 29.86 in 5.0 mi South 8.1 mph - N/A   Unknown
6:25 AM 53.6 °F 51.8 °F 94% 29.86 in 5.0 mi South 6.9 mph - N/A   Mostly Cloudy
6:55 AM 53.6 °F 51.8 °F 94% 29.86 in 4.3 mi SSW 9.2 mph - N/A   Partly Cloudy
7:25 AM 55.4 °F 53.6 °F 94% 29.86 in 4.3 mi SSW 10.4 mph - N/A   Overcast
7:55 AM 55.4 °F 53.6 °F 94% 29.86 in 3.7 mi SSW 10.4 mph - N/A   Partly Cloudy
8:00 AM 56 °F 54 °F 89% 29.87 in 4 mi SSW 11.2 mph - -   Mist
8:25 AM 57.2 °F 55.4 °F 94% 29.86 in 3.7 mi South 10.4 mph - N/A   Scattered Clouds
8:55 AM 57.2 °F 53.6 °F 88% 29.86 in 4.3 mi South 10.4 mph - N/A   Unknown
9:25 AM 59.0 °F 55.4 °F 88% 29.86 in 4.3 mi South 11.5 mph - N/A   Unknown
9:55 AM 60.8 °F 55.4 °F 82% 29.86 in 5.0 mi SSW 11.5 mph - N/A   Unknown
10:25 AM 62.6 °F 55.4 °F 77% 29.86 in 6.2 mi SSW 11.5 mph - N/A   Unknown
10:55 AM 64.4 °F 55.4 °F 73% 29.86 in 6.2 mi SSW 10.4 mph - N/A   Unknown
11:00 AM 65 °F 56 °F 64% 29.87 in 6 mi SSW 11.2 mph - -   Scattered Clouds
11:25 AM 66.2 °F 55.4 °F 68% 29.86 in 6.2 mi SSW 12.7 mph - N/A   Unknown
11:55 AM 68.0 °F 55.4 °F 64% 29.86 in 6.2 mi SSW 12.7 mph - N/A   Unknown
12:25 PM 68.0 °F 53.6 °F 60% 29.83 in 6.2 mi South 12.7 mph - N/A   Partly Cloudy
12:55 PM 68.0 °F 50.0 °F 52% 29.83 in 6.2 mi SSW 15.0 mph - N/A   Unknown
1:25 PM 69.8 °F 53.6 °F 56% 29.83 in 6.2 mi SSW 12.7 mph - N/A   Unknown
1:55 PM 68.0 °F 50.0 °F 52% 29.83 in 6.2 mi SSW 13.8 mph - N/A   Unknown
2:00 PM 67 °F 51 °F 45% 29.84 in 25 mi SSW 15.7 mph - -   Partly Cloudy
2:25 PM 64.4 °F 53.6 °F 68% 29.83 in 6.2 mi SSW 13.8 mph - N/A Rain Light Rain
2:55 PM 64.4 °F 55.4 °F 73% 29.83 in 6.2 mi SW 15.0 mph - N/A   Light Drizzle
3:25 PM 64.4 °F 57.2 °F 77% 29.83 in 6.2 mi SSW 11.5 mph - N/A Rain Light Rain
3:55 PM 64.4 °F 55.4 °F 73% 29.83 in 6.2 mi South 12.7 mph - N/A   Unknown
4:25 PM 64.4 °F 55.4 °F 73% 29.83 in 6.2 mi South 11.5 mph - N/A Rain Light Rain
4:55 PM 64.4 °F 57.2 °F 77% 29.83 in 6.2 mi SSW 11.5 mph - N/A   Mostly Cloudy
5:00 PM 65 °F 57 °F 68% 29.83 in 14 mi SSW 15.7 mph - - Rain Rain
5:25 PM 64.4 °F 55.4 °F 73% 29.80 in 6.2 mi SSW 17.3 mph - N/A   Scattered Clouds
5:55 PM 64.4 °F 55.4 °F 73% 29.80 in 6.2 mi SSW 13.8 mph - N/A   Overcast
6:25 PM 62.6 °F 53.6 °F 72% 29.83 in 6.2 mi SSW 20.7 mph - N/A   Overcast
6:55 PM 62.6 °F 55.4 °F 77% 29.80 in 6.2 mi SSW 13.8 mph - N/A   Scattered Clouds
7:25 PM 62.6 °F 55.4 °F 77% 29.80 in 6.2 mi South 13.8 mph - N/A   Mostly Cloudy
7:55 PM 62.6 °F 55.4 °F 77% 29.80 in 6.2 mi SSW 13.8 mph - N/A   Unknown
8:00 PM 62 °F 55 °F 73% 29.82 in 28 mi SSW 15.7 mph - -   Partly Cloudy
8:25 PM 60.8 °F 55.4 °F 82% 29.80 in 6.2 mi SSW 13.8 mph - N/A   Partly Cloudy
8:55 PM 62.6 °F 55.4 °F 77% 29.83 in 6.2 mi SW 11.5 mph - N/A   Overcast
9:25 PM 60.8 °F 55.4 °F 82% 29.83 in 6.2 mi South 9.2 mph - N/A   Partly Cloudy
9:55 PM 60.8 °F 55.4 °F 82% 29.83 in 6.2 mi SSW 9.2 mph - N/A   Unknown
10:25 PM 60.8 °F 51.8 °F 72% 29.86 in 6.2 mi West 8.1 mph - N/A   Overcast
10:55 PM 59.0 °F 51.8 °F 77% 29.86 in 6.2 mi WNW 3.5 mph - N/A Thunderstorm Thunderstorm
11:00 PM 58 °F 52 °F 73% 29.87 in 28 mi NW 2.2 mph - - Thunderstorm Light Thunderstorm
11:25 PM 57.2 °F 51.8 °F 82% 29.86 in 6.2 mi NNW 3.5 mph - N/A   Overcast
11:55 PM 55.4 °F 53.6 °F 94% 29.86 in 3.7 mi West 6.9 mph - N/A Rain Heavy Rain Showers